This demonstration page uses our WeatherBlox Daily Observations layout. Learn more.

Hourly Observations for October 17, 2019

Temp ( °F °C ) Dew Point ( °F °C ) Humidity (%) Winds ( mph kmh ) Pressure ( in mb ) Visibility ( mi km ) Precip ( " mm )
12:15 am 00:15 Clear 44 6.7 35 1.6 70 70 S 6 9 30 1016 10 16.09344 0 0
12:35 am 00:35 Clear 43 5.9 34 1.2 72 72 Calm 29.97 1015 10 16.09344 0 0
12:55 am 00:55 Clear 42 5.8 34 1.3 73 73 SSE 5 7 29.97 1015 10 16.09344 0 0
1:15 am 01:15 Clear 40 4.5 34 1 78 78 S 3 6 30 1016 10 16.09344 0 0
1:35 am 01:35 Clear 42 5.7 35 1.5 75 75 S 5 7 29.97 1015 10 16.09344 0 0
1:55 am 01:55 Clear 42 5.7 35 1.4 74 74 Calm 29.94 1014 10 16.09344 0 0
2:15 am 02:15 Clear 40 4.7 33 0.7 76 76 SSE 3 6 29.97 1015 10 16.09344 0 0
2:35 am 02:35 Clear 37 3 33 0.4 83 83 Calm 29.97 1015 10 16.09344 0 0
2:55 am 02:55 Clear 40 4.5 34 0.9 78 78 SSE 5 7 29.97 1015 10 16.09344 0 0
3:15 am 03:15 Clear 39 3.7 34 1 83 83 S 3 6 29.97 1015 10 16.09344 0 0
3:35 am 03:35 Clear 39 4 34 1 81 81 S 5 7 29.97 1015 10 16.09344 0 0
3:55 am 03:55 Clear 40 4.3 34 1.3 81 81 S 7 11 29.94 1014 10 16.09344 0 0
4:15 am 04:15 Clear 39 4.1 34 1.2 82 82 S 8 13 29.94 1014 10 16.09344 0 0
4:35 am 04:35 Clear 41 5.1 36 2 81 81 S 5 7 29.91 1013 10 16.09344 0 0
4:55 am 04:55 Clear 41 5 35 1.8 80 80 S 7 11 29.91 1013 10 16.09344 0 0
5:15 am 05:15 Clear 39 3.8 35 1.4 85 85 S 5 7 29.94 1014 10 16.09344 0 0
5:35 am 05:35 Clear 39 4 35 1.6 85 85 S 3 6 29.94 1014 10 16.09344 0 0
5:55 am 05:55 Clear 39 3.9 35 1.5 85 85 Calm 29.94 1014 10 16.09344 0 0
6:15 am 06:15 Clear 39 4 35 1.5 84 84 S 5 7 29.94 1014 10 16.09344 0 0
6:35 am 06:35 Clear 38 3.3 34 1.3 87 87 S 5 7 29.91 1013 10 16.09344 0 0
6:55 am 06:55 Clear 38 3.6 35 1.6 87 87 S 5 7 29.91 1013 10 16.09344 0 0
7:15 am 07:15 Clear 37 2.9 34 1.1 88 88 S 5 7 29.91 1013 10 16.09344 0 0
7:35 am 07:35 Clear 37 2.6 33 0.8 88 88 Calm 29.91 1013 10 16.09344 0 0
7:55 am 07:55 Sunny 34 1.1 32 0 92 92 Calm 29.97 1015 10 16.09344 0 0
8:15 am 08:15 Sunny 34 1.1 32 0.2 94 94 Calm 29.97 1015 10 16.09344 0 0
8:35 am 08:35 Sunny 35 1.7 33 0.7 93 93 Calm 29.94 1014 10 16.09344 0 0
8:55 am 08:55 Sunny 39 3.7 36 2.3 91 91 Calm 29.91 1013 10 16.09344 0 0
9:15 am 09:15 Sunny 41 5.2 37 2.7 84 84 Calm 29.88 1012 10 16.09344 0 0
9:35 am 09:35 Sunny 45 7 39 3.8 80 80 S 5 7 29.88 1012 10 16.09344 0 0
9:55 am 09:55 Sunny 47 8.4 40 4.2 75 75 S 3 6 29.85 1011 10 16.09344 0 0
10:15 am 10:15 Sunny 51 10.7 40 4.5 66 66 S 5 7 29.85 1011 10 16.09344 0 0
10:35 am 10:35 Sunny 54 12 40 4.6 61 61 S 6 9 29.83 1010 10 16.09344 0 0
10:55 am 10:55 Sunny 56 13.6 41 4.8 56 56 S 7 11 29.83 1010 10 16.09344 0 0
11:15 am 11:15 Sunny 60 15.4 40 4.5 48 48 S 7 11 29.77 1008 10 16.09344 0 0
11:35 am 11:35 Sunny 63 17.1 40 4.2 43 43 S 5 7 29.77 1008 10 16.09344 0 0
11:55 am 11:55 Sunny 65 18.4 39 4.1 39 39 SSE 6 9 29.74 1007 10 16.09344 0 0
12:15 pm 12:15 Sunny 69 20.4 38 3.4 33 33 SSE 10 17 29.74 1007 10 16.09344 0 0
12:35 pm 12:35 Sunny 71 21.9 38 3.4 30 30 SSE 8 13 29.68 1005 10 16.09344 0 0
12:55 pm 12:55 Sunny 73 23 39 3.8 29 29 SSE 8 13 29.68 1005 10 16.09344 0 0
1:15 pm 13:15 Sunny 75 23.7 39 4 28 28 SSE 10 17 29.68 1005 10 16.09344 0 0
1:35 pm 13:35 Sunny 75 24.1 39 4.1 27 27 S 12 19 29.68 1005 10 16.09344 0 0
1:55 pm 13:55 Sunny 76 24.6 39 4.1 27 27 SSE 10 17 29.65 1004 10 16.09344 0 0
2:15 pm 14:15 Sunny 78 25.5 39 3.8 25 25 SSE 13 20 29.62 1003 10 16.09344 0 0
2:35 pm 14:35 Sunny 78 25.8 38 3.6 24 24 S 14 22 29.62 1003 10 16.09344 0 0
2:55 pm 14:55 Sunny 77 24.9 39 4.1 26 26 S 14 22 29.62 1003 10 16.09344 0 0
3:15 pm 15:15 Sunny 76 24.6 39 4.1 27 27 S 13 20 29.59 1002 10 16.09344 0 0
3:35 pm 15:35 Sunny 77 25.1 40 4.7 27 27 SSE 15 24 29.59 1002 10 16.09344 0 0
3:55 pm 15:55 Sunny 78 25.8 41 4.9 26 26 SSE 16 26 29.59 1002 10 16.09344 0 0
4:15 pm 16:15 Sunny 78 25.7 41 4.9 26 26 S 17 28 29.59 1002 10 16.09344 0 0
4:35 pm 16:35 Sunny 77 24.8 41 5.2 28 28 SSE 14 22 29.59 1002 10 16.09344 0 0
4:55 pm 16:55 Sunny 76 24.5 41 5.2 29 29 SSE 12 19 29.56 1001 10 16.09344 0 0
5:15 pm 17:15 Sunny 76 24.5 42 5.4 29 29 SSE 16 26 29.59 1002 10 16.09344 0 0
5:35 pm 17:35 Sunny 74 23.6 41 5 30 30 SSE 16 26 29.59 1002 10 16.09344 0 0
5:55 pm 17:55 Sunny 73 22.7 42 5.3 32 32 SSE 16 26 29.59 1002 10 16.09344 0 0
6:15 pm 18:15 Sunny 71 21.9 41 5.1 34 34 SSE 14 22 29.59 1002 10 16.09344 0 0
6:35 pm 18:35 Sunny 70 20.9 41 4.9 35 35 SSE 9 15 29.59 1002 10 16.09344 0 0
6:55 pm 18:55 Clear 67 19.6 40 4.7 38 38 SE 13 20 29.62 1003 10 16.09344 0 0
7:15 pm 19:15 Clear 65 18.6 40 4.5 40 40 SE 9 15 29.62 1003 10 16.09344 0 0
7:35 pm 19:35 Clear 64 17.8 40 4.5 42 42 SSE 10 17 29.62 1003 10 16.09344 0 0
7:55 pm 19:55 Clear 64 17.5 40 4.5 42 42 SSE 12 19 29.62 1003 10 16.09344 0 0
8:15 pm 20:15 Clear 64 17.5 40 4.7 43 43 SSE 13 20 29.62 1003 10 16.09344 0 0
8:35 pm 20:35 Clear 63 17.2 41 4.8 44 44 SSE 14 22 29.59 1002 10 16.09344 0 0
8:55 pm 20:55 Clear 63 17.1 41 4.8 44 44 SSE 15 24 29.59 1002 10 16.09344 0 0
9:15 pm 21:15 Clear 62 16.8 40 4.7 45 45 SE 15 24 29.59 1002 10 16.09344 0 0
9:35 pm 21:35 Clear 61 16.1 40 4.7 47 47 SSE 15 24 29.62 1003 10 16.09344 0 0
9:55 pm 21:55 Clear 60 15.5 41 4.8 49 49 SE 15 24 29.62 1003 10 16.09344 0 0
10:15 pm 22:15 Clear 59 15.2 41 4.8 50 50 SSE 15 24 29.62 1003 10 16.09344 0 0
10:35 pm 22:35 Clear 60 15.5 40 4.7 49 49 SSE 12 19 29.62 1003 10 16.09344 0 0
10:55 pm 22:55 Clear 60 15.7 40 4.5 48 48 SSE 15 24 29.62 1003 10 16.09344 0 0
11:15 pm 23:15 Clear 60 15.7 40 4.2 47 47 SSE 15 24 29.59 1002 10 16.09344 0 0
11:35 pm 23:35 Clear 60 15.5 39 4.1 47 47 SSE 14 22 29.59 1002 10 16.09344 0 0
11:55 pm 23:55 Clear 59 15.1 39 4 48 48 SSE 15 24 29.59 1002 10 16.09344 0 0

Powered by AerisWeather